EW8073 Weather Reports


Display with metric or nautical units.
time (UTC)temp
F
wind
direction
speed
MPH
gust
MPH
rain 1hr
in
rain 24hr
in
rain mn
in
humidity
%
barometer
mb
20260831174713 79 243 0.0 0.0 0.00 0.02 0.00 43 1020.4
20260831174208 79 243 0.0 0.0 0.00 0.02 0.00 42 1020.6
20260831173701 79 243 0.0 0.0 0.00 0.02 0.00 43 1020.6
20260831173155 79 243 0.0 0.0 0.00 0.02 0.00 43 1020.6
20260831172652 78 243 0.0 0.0 0.00 0.02 0.00 47 1020.7
20260831172143 78 243 0.0 0.0 0.00 0.02 0.00 46 1020.7
20260831171132 78 243 0.0 0.0 0.00 0.02 0.00 45 1020.7
20260831170119 78 243 0.0 0.0 0.00 0.02 0.00 45 1020.8
20260831165614 78 243 0.0 0.0 0.00 0.02 0.00 45 1020.7
20260831165109 77 243 0.0 0.0 0.00 0.02 0.00 47 1020.7
20260831164603 77 244 0.0 0.0 0.00 0.02 0.00 47 1020.7
20260831164056 77 244 0.0 0.0 0.00 0.02 0.00 48 1020.8
20260831163549 77 244 0.0 0.0 0.00 0.02 0.00 47 1020.7
20260831163044 76 243 0.0 0.0 0.00 0.02 0.00 49 1020.7
20260831162538 76 243 0.0 0.0 0.00 0.02 0.00 48 1020.6
20260831162033 76 243 0.0 0.0 0.00 0.02 0.00 50 1020.6
20260831161527 75 244 0.0 0.0 0.00 0.02 0.00 49 1020.6
20260831161021 75 244 0.0 0.0 0.00 0.02 0.00 48 1020.6
20260831160515 75 244 0.0 0.0 0.00 0.02 0.00 49 1020.6
20260831154957 74 248 0.0 0.0 0.00 0.02 0.00 52 1020.3
20260831154450 74 248 0.0 0.0 0.00 0.02 0.00 53 1020.2
20260831153943 73 248 0.0 0.0 0.00 0.02 0.00 52 1020.2
20260831153438 73 248 0.0 0.0 0.00 0.02 0.00 52 1020.2
20260831152932 73 248 0.0 0.0 0.00 0.02 0.00 51 1020.2
20260831152427 72 249 0.0 0.0 0.00 0.02 0.00 53 1020.1
20260831151920 72 248 0.0 0.0 0.00 0.02 0.00 55 1020.2
20260831151413 71 249 0.0 1.0 0.00 0.02 0.00 55 1020.1
20260831150908 71 249 0.0 1.0 0.00 0.02 0.00 54 1020.3
20260831150402 71 252 0.0 1.0 0.00 0.02 0.00 57 1020.2
20260831145856 71 252 0.0 1.0 0.00 0.02 0.00 57 1020.2
20260831145350 70 245 0.0 2.0 0.00 0.02 0.00 57 1020.2
20260831144844 70 255 0.0 2.0 0.00 0.02 0.00 58 1020.3
20260831143833 69 248 0.0 0.0 0.00 0.02 0.00 62 1020.2
20260831143327 68 247 0.0 0.0 0.00 0.02 0.00 63 1020.2
20260831142820 68 249 0.0 0.0 0.00 0.02 0.00 64 1020.1
20260831142314 67 248 0.0 1.0 0.00 0.02 0.00 65 1020.0
20260831141808 67 248 0.0 1.0 0.00 0.02 0.00 67 1020.0
20260831141301 66 248 0.0 1.0 0.00 0.02 0.00 69 1020.0
20260831140755 65 241 0.0 1.0 0.00 0.02 0.00 72 1020.0
20260831140250 65 229 0.0 0.0 0.00 0.02 0.00 73 1020.0
20260831135744 64 229 0.0 0.0 0.00 0.02 0.00 74 1020.0
20260831135245 63 229 0.0 0.0 0.00 0.02 0.00 74 1019.9
20260831134239 62 229 0.0 0.0 0.00 0.02 0.00 74 1019.7
20260831133737 62 229 0.0 0.0 0.00 0.02 0.00 75 1019.6
20260831132733 61 229 0.0 0.0 0.00 0.02 0.00 75 1019.5
20260831132232 61 229 0.0 0.0 0.00 0.02 0.00 75 1019.5
20260831131729 61 229 0.0 0.0 0.00 0.02 0.00 74 1019.4
20260831131228 61 229 0.0 0.0 0.00 0.02 0.00 74 1019.3
20260831130223 61 229 0.0 0.0 0.00 0.02 0.00 73 1019.3
20260831125219 61 229 0.0 0.0 0.00 0.02 0.00 72 1019.3
20260831124721 61 229 0.0 0.0 0.00 0.02 0.00 72 1019.2
20260831124217 61 229 0.0 0.0 0.00 0.02 0.00 72 1019.0
20260831123715 61 229 0.0 0.0 0.00 0.02 0.00 71 1018.9
20260831123214 61 229 0.0 0.0 0.00 0.02 0.00 71 1018.9
20260831122713 61 229 0.0 0.0 0.00 0.02 0.00 71 1018.8
20260831122215 61 229 0.0 0.0 0.00 0.02 0.00 70 1018.8
20260831121711 61 229 0.0 0.0 0.00 0.02 0.00 70 1018.7
20260831120209 62 229 0.0 0.0 0.00 0.02 0.00 70 1018.6
20260831114709 62 229 0.0 0.0 0.00 0.02 0.00 70 1018.6
20260831114210 62 229 0.0 0.0 0.00 0.02 0.00 70 1018.6
20260831113711 62 229 0.0 0.0 0.00 0.02 0.00 70 1018.6
20260831113209 62 229 0.0 0.0 0.00 0.02 0.00 70 1018.5
20260831112706 62 229 0.0 0.0 0.00 0.02 0.00 70 1018.3
20260831112206 62 229 0.0 0.0 0.00 0.02 0.00 70 1018.3
20260831111706 62 229 0.0 0.0 0.00 0.02 0.00 70 1018.2
20260831111205 62 229 0.0 0.0 0.00 0.02 0.00 70 1018.1
20260831110706 62 229 0.0 0.0 0.00 0.02 0.00 70 1018.1
20260831110208 62 229 0.0 0.0 0.00 0.02 0.00 70 1018.2
20260831105708 62 229 0.0 0.0 0.00 0.02 0.00 70 1018.2
20260831105208 62 229 0.0 0.0 0.00 0.02 0.00 70 1018.1
20260831104708 62 229 0.0 0.0 0.00 0.02 0.00 70 1018.0
20260831104204 62 229 0.0 0.0 0.00 0.02 0.00 70 1018.0
20260831103704 62 229 0.0 0.0 0.00 0.02 0.00 70 1018.1
20260831103204 62 229 0.0 0.0 0.00 0.02 0.00 70 1018.1
20260831102702 62 229 0.0 0.0 0.00 0.02 0.00 70 1018.1
20260831102201 62 229 0.0 0.0 0.00 0.02 0.00 70 1018.1
20260831101701 62 229 0.0 0.0 0.00 0.02 0.00 70 1018.1
20260831101203 62 229 0.0 0.0 0.00 0.02 0.00 70 1018.2
20260831100701 62 229 0.0 0.0 0.00 0.02 0.00 70 1018.1
20260831100202 62 229 0.0 0.0 0.00 0.02 0.00 70 1018.1
20260831095702 63 229 0.0 0.0 0.00 0.02 0.00 70 1018.0
20260831095201 63 229 0.0 0.0 0.00 0.02 0.00 70 1017.9
20260831094701 63 229 0.0 0.0 0.00 0.02 0.00 70 1017.9
20260831094158 63 229 0.0 0.0 0.00 0.02 0.00 70 1017.8
20260831093659 63 229 0.0 0.0 0.00 0.02 0.00 70 1017.8
20260831093153 63 229 0.0 0.0 0.00 0.02 0.00 70 1017.9
20260831092645 63 229 0.0 0.0 0.00 0.02 0.00 70 1017.8
20260831092139 63 229 0.0 0.0 0.00 0.02 0.00 70 1017.8
20260831091634 63 229 0.0 0.0 0.00 0.02 0.00 70 1017.8
20260831091129 63 229 0.0 0.0 0.00 0.02 0.00 70 1017.6
20260831090621 63 229 0.0 0.0 0.00 0.02 0.00 69 1017.6
20260831085610 64 229 0.0 0.0 0.00 0.02 0.00 69 1017.8
20260831085103 64 229 0.0 0.0 0.00 0.02 0.00 69 1017.6
20260831084557 64 229 0.0 0.0 0.00 0.02 0.00 69 1017.8
20260831084054 64 229 0.0 0.0 0.00 0.02 0.00 69 1017.8
20260831083547 64 229 0.0 0.0 0.00 0.02 0.00 69 1017.8
20260831083039 64 229 0.0 0.0 0.00 0.02 0.00 69 1017.9
20260831082027 65 229 0.0 0.0 0.00 0.02 0.00 69 1018.0
20260831081523 65 229 0.0 0.0 0.00 0.02 0.00 69 1018.0
20260831080509 65 229 0.0 0.0 0.00 0.02 0.00 69 1017.9
20260831080004 65 229 0.0 0.0 0.00 0.02 0.00 69 1017.9
20260831075459 65 229 0.0 0.0 0.00 0.02 0.00 69 1018.1
20260831074951 65 229 0.0 0.0 0.00 0.02 0.00 69 1018.2
20260831074445 65 229 0.0 0.0 0.00 0.02 0.00 69 1018.1
20260831073940 65 229 0.0 0.0 0.00 0.02 0.00 69 1018.2
20260831072927 66 229 0.0 0.0 0.00 0.02 0.00 68 1018.2
20260831072423 66 229 0.0 0.0 0.00 0.02 0.00 68 1018.3
20260831071916 66 229 0.0 0.0 0.00 0.02 0.00 68 1018.3
20260831070904 66 229 0.0 0.0 0.00 0.02 0.00 67 1018.6
20260831070403 67 229 0.0 0.0 0.00 0.02 0.00 67 1018.6
20260831065905 67 229 0.0 0.0 0.00 0.02 0.00 67 1018.5
20260831065404 67 229 0.0 0.0 0.00 0.02 0.00 67 1018.3
20260831064903 67 229 0.0 0.0 0.00 0.02 0.00 67 1018.6
20260831064402 67 229 0.0 0.0 0.00 0.02 0.00 67 1018.6
20260831063900 67 229 0.0 0.0 0.00 0.02 0.00 67 1018.6
20260831063357 67 229 0.0 0.0 0.00 0.02 0.00 67 1018.7
20260831062855 67 229 0.0 0.0 0.00 0.02 0.00 67 1018.9
20260831062355 67 229 0.0 0.0 0.00 0.02 0.00 67 1018.8
20260831061855 67 229 0.0 0.0 0.00 0.02 0.00 68 1018.8
20260831060856 67 229 0.0 0.0 0.00 0.02 0.00 68 1018.9
20260831060354 67 229 0.0 0.0 0.00 0.02 0.00 68 1019.0
20260831055851 67 229 0.0 0.0 0.00 0.02 0.02 69 1019.0
20260831055351 67 229 0.0 0.0 0.00 0.02 0.02 69 1019.3
20260831054345 67 229 0.0 0.0 0.00 0.02 0.02 70 1019.2
20260831053839 67 229 0.0 0.0 0.00 0.02 0.02 70 1019.4
20260831053333 67 254 0.0 0.0 0.00 0.02 0.02 72 1019.5
20260831052827 67 253 0.0 0.0 0.00 0.02 0.02 72 1019.5
20260831051814 67 258 0.0 0.0 0.00 0.02 0.02 73 1019.7
20260831051311 67 223 0.0 0.0 0.00 0.02 0.02 72 1019.7
20260831050804 67 223 0.0 1.0 0.00 0.02 0.02 72 1020.0
20260831050259 66 223 0.0 1.0 0.00 0.02 0.02 72 1020.2
20260831045751 66 223 0.0 0.0 0.00 0.02 0.02 71 1020.0
20260831045245 66 223 0.0 0.0 0.00 0.02 0.02 71 1019.5
20260831044739 66 223 0.0 0.0 0.00 0.02 0.02 71 1019.3
20260831044233 66 223 0.0 0.0 0.00 0.02 0.02 70 1019.0
20260831043727 66 223 0.0 0.0 0.00 0.02 0.02 70 1018.9
20260831043222 67 223 0.0 0.0 0.00 0.02 0.02 70 1018.9
20260831042716 67 223 0.0 0.0 0.00 0.02 0.02 70 1018.8
20260831042209 67 223 0.0 0.0 0.00 0.02 0.02 69 1018.8
20260831041703 67 223 0.0 0.0 0.00 0.02 0.02 69 1018.9
20260831041157 67 223 0.0 0.0 0.00 0.02 0.02 69 1018.9
20260831040145 67 223 0.0 0.0 0.00 0.02 0.02 69 1018.8
20260831035640 67 223 0.0 0.0 0.00 0.02 0.02 68 1018.8
20260831035133 67 223 0.0 0.0 0.00 0.02 0.02 68 1018.8
20260831034627 67 223 0.0 0.0 0.00 0.02 0.02 68 1018.8
20260831034119 67 223 0.0 0.0 0.00 0.02 0.02 67 1018.8
20260831033613 67 223 0.0 0.0 0.00 0.02 0.02 67 1018.8
20260831033108 67 223 0.0 0.0 0.00 0.02 0.02 66 1018.8
20260831032602 67 223 0.0 0.0 0.00 0.02 0.02 66 1018.8
20260831032055 67 223 0.0 0.0 0.00 0.02 0.02 65 1018.7
20260831031549 67 223 0.0 0.0 0.00 0.02 0.02 65 1018.7
20260831031042 67 223 0.0 0.0 0.00 0.02 0.02 65 1018.6
20260831030537 68 223 0.0 0.0 0.00 0.02 0.02 64 1018.6
20260831030031 68 223 0.0 0.0 0.00 0.02 0.02 64 1018.6
20260831025526 68 223 0.0 0.0 0.00 0.02 0.02 63 1018.5
20260831025019 68 223 0.0 0.0 0.00 0.02 0.02 63 1018.3
20260831024513 69 223 0.0 0.0 0.00 0.02 0.02 63 1018.5
20260831024006 69 223 0.0 0.0 0.00 0.02 0.02 63 1018.5
20260831023500 69 223 0.0 0.0 0.00 0.02 0.02 62 1018.1
20260831021942 69 223 0.0 0.0 0.00 0.02 0.02 62 1017.9
20260831021437 70 223 0.0 0.0 0.00 0.02 0.02 62 1018.0
20260831020931 70 223 0.0 0.0 0.00 0.02 0.02 62 1017.9
20260831020425 70 223 0.0 0.0 0.00 0.02 0.02 61 1017.9
20260831015920 70 223 0.0 0.0 0.00 0.02 0.02 61 1017.9
20260831015412 71 223 0.0 0.0 0.00 0.02 0.02 61 1017.9
20260831014401 71 223 0.0 0.0 0.00 0.02 0.02 60 1017.8
20260831013350 72 223 0.0 0.0 0.00 0.02 0.02 59 1017.8
20260831012842 72 223 0.0 0.0 0.00 0.02 0.02 59 1017.9
20260831012337 73 223 0.0 0.0 0.00 0.02 0.02 58 1017.8
20260831011831 73 223 0.0 0.0 0.00 0.02 0.02 58 1017.6
20260831011325 73 223 0.0 0.0 0.00 0.02 0.02 57 1017.8
20260831005807 75 222 0.0 0.0 0.00 0.02 0.02 56 1017.6
20260831004250 75 222 0.0 0.0 0.00 0.02 0.02 56 1017.8
20260831003239 75 222 0.0 0.0 0.00 0.02 0.02 56 1017.8
20260831002733 75 222 0.0 2.0 0.00 0.02 0.02 56 1017.8
20260831002225 75 222 0.0 2.0 0.00 0.02 0.02 57 1018.0
20260831001718 74 222 0.0 2.0 0.00 0.02 0.02 59 1017.9
20260831001213 74 223 0.0 0.0 0.00 0.02 0.02 59 1017.9
20260831000201 73 225 0.0 0.0 0.00 0.02 0.02 62 1017.9
20260830235655 73 225 0.0 0.0 0.00 0.02 0.02 63 1017.9
20260830234139 71 226 0.0 0.0 0.00 0.02 0.02 64 1017.8
20260830233631 71 226 0.0 0.0 0.00 0.02 0.02 65 1017.8
20260830233125 71 226 0.0 0.0 0.00 0.02 0.02 66 1017.9
20260830232618 71 226 0.0 0.0 0.01 0.02 0.02 66 1017.8
20260830232113 71 226 0.0 0.0 0.01 0.02 0.02 65 1017.8
20260830231608 71 226 0.0 0.0 0.01 0.02 0.02 65 1017.8
20260830231102 70 226 0.0 0.0 0.01 0.02 0.02 64 1017.8
20260830230556 70 226 0.0 0.0 0.01 0.02 0.02 64 1017.8
20260830230048 70 226 0.0 0.0 0.01 0.02 0.02 63 1017.6
20260830225050 70 226 0.0 0.0 0.01 0.02 0.02 61 1017.9
20260830224548 70 226 0.0 0.0 0.01 0.02 0.02 59 1017.9
20260830224047 70 226 0.0 0.0 0.01 0.02 0.02 59 1018.1
20260830223544 71 226 0.0 0.0 0.01 0.02 0.02 59 1018.2
20260830222046 71 221 0.0 0.0 0.00 0.01 0.01 56 1018.8
20260830221542 71 261 0.0 0.0 0.00 0.01 0.01 56 1018.8
20260830221041 71 258 0.0 1.0 0.00 0.01 0.01 55 1018.8
20260830220039 72 245 1.0 9.0 0.00 0.01 0.01 53 1018.6
20260830215538 72 281 1.0 9.0 0.00 0.01 0.01 51 1018.6
20260830215039 72 345 1.0 8.0 0.00 0.01 0.01 50 1018.3
20260830214534 72 315 1.0 13.0 0.00 0.01 0.01 50 1018.2
20260830214034 72 296 0.0 13.0 0.01 0.01 0.01 50 1018.2
20260830213535 72 13 1.0 9.0 0.01 0.01 0.01 52 1018.2
20260830213035 72 258 2.0 9.0 0.01 0.01 0.01 52 1018.2
20260830212534 72 213 3.0 15.0 0.01 0.01 0.01 52 1018.3
20260830212036 72 18 3.0 15.0 0.01 0.01 0.01 54 1018.6
20260830211537 72 5 3.0 14.0 0.01 0.01 0.01 57 1018.6
20260830211036 73 293 3.0 14.0 0.01 0.01 0.01 60 1018.7
20260830210536 73 332 1.0 10.0 0.01 0.01 0.01 64 1018.6
20260830205532 74 32 2.0 10.0 0.01 0.01 0.01 62 1018.5
20260830205033 76 10 3.0 12.0 0.01 0.01 0.01 58 1018.0
20260830204032 79 337 3.0 10.0 0.00 0.00 0.00 44 1017.8
20260830203533 79 65 3.0 11.0 0.00 0.00 0.00 42 1017.8
20260830203032 80 344 2.0 11.0 0.00 0.00 0.00 42 1017.4
20260830202033 82 290 0.0 10.0 0.00 0.00 0.00 41 1016.9
20260830201526 82 334 1.0 14.0 0.00 0.00 0.00 39 1016.9
20260830201021 84 335 1.0 14.0 0.00 0.00 0.00 37 1016.9
20260830200008 86 319 0.0 0.0 0.00 0.00 0.00 35 1016.6
20260830195503 86 157 0.0 0.0 0.00 0.00 0.00 35 1016.4
20260830194958 86 157 0.0 0.0 0.00 0.00 0.00 35 1016.4
20260830194450 86 157 0.0 0.0 0.00 0.00 0.00 34 1016.2
20260830193944 86 157 0.0 0.0 0.00 0.00 0.00 34 1016.0
20260830193438 86 157 0.0 0.0 0.00 0.00 0.00 35 1015.9
20260830192932 86 212 0.0 0.0 0.00 0.00 0.00 34 1015.9
20260830192427 86 212 0.0 0.0 0.00 0.00 0.00 35 1015.9
20260830191920 86 212 0.0 0.0 0.00 0.00 0.00 36 1015.8
20260830191415 85 212 0.0 0.0 0.00 0.00 0.00 35 1015.9
20260830190909 85 230 0.0 0.0 0.00 0.00 0.00 38 1016.1
20260830190403 85 230 0.0 0.0 0.00 0.00 0.00 38 1016.1
20260830185856 85 230 0.0 0.0 0.00 0.00 0.00 38 1016.1
20260830185352 84 231 0.0 0.0 0.00 0.00 0.00 39 1016.1
20260830183831 84 263 0.0 0.0 0.00 0.00 0.00 39 1016.5
20260830182314 83 265 0.0 0.0 0.00 0.00 0.00 37 1016.4
20260830181808 83 265 0.0 0.0 0.00 0.00 0.00 39 1016.6
20260830181303 83 265 0.0 0.0 0.00 0.00 0.00 36 1016.5
20260830180756 82 265 0.0 0.0 0.00 0.00 0.00 36 1016.6
20260830175745 82 0 0.0 0.0 0.00 0.00 0.00 37 1016.7